THAICOM 5

Last updated on Thu Feb 27 2020 04:51:04 GMT+0000 (Coordinated Universal Time)

1 29163U 06020B 20056.51092270 .00000028 00000-0 00000+0 0 9997 2 29163 0.1699 103.5707 0013697 116.1044 196.0029 0.99449000 50438
UTC large
Height (km)
Speed (km/s)
/
Latitude / Longitude
Inclination (degrees)
Orbital Period (minutes)
Azimuth
Elevation
Range (km)
Doppler Factor

Next 0 passes for location: London (51.5072 / 0.1276)

Sorry there are no passes over London.
THAICOM 5